| time (UTC) | temp F | wind direction | speed MPH | gust MPH | rain 1hr in | rain 24hr in | rain mn in | humidity % | barometer mb |
| 20260906004813 | 86 | 109 | 7.0 | 14.0 | 0.00 | 0.00 | 0.00 | 79 | 1009.7 |
| 20260906004312 | 86 | 134 | 7.0 | 14.0 | 0.00 | 0.00 | 0.00 | 79 | 1009.3 |
| 20260906003812 | 86 | 139 | 7.0 | 16.0 | 0.00 | 0.00 | 0.00 | 79 | 1009.3 |
| 20260906003312 | 86 | 144 | 8.0 | 16.0 | 0.00 | 0.00 | 0.00 | 79 | 1009.3 |
| 20260906002813 | 87 | 128 | 9.0 | 16.0 | 0.00 | 0.00 | 0.00 | 78 | 1009.3 |
| 20260906002312 | 87 | 149 | 10.0 | 17.0 | 0.00 | 0.00 | 0.00 | 77 | 1009.3 |
| 20260906001812 | 87 | 139 | 9.0 | 17.0 | 0.00 | 0.00 | 0.00 | 77 | 1009.3 |
| 20260906001314 | 87 | 153 | 8.0 | 16.0 | 0.00 | 0.00 | 0.00 | 76 | 1009.3 |
| 20260906001041 | 88 | 90 | 9.0 | 16.0 | 0.00 | 0.00 | 0.00 | 74 | 1009.3 |
| 20260906000314 | 88 | 146 | 9.0 | 17.0 | 0.00 | 0.00 | 0.00 | 73 | 1009.3 |
| 20260905235813 | 89 | 120 | 9.0 | 17.0 | 0.00 | 0.00 | 0.00 | 72 | 1009.2 |
| 20260905235306 | 89 | 123 | 9.0 | 18.0 | 0.00 | 0.00 | 0.00 | 72 | 1009.2 |
| 20260905235009 | 89 | 144 | 9.0 | 18.0 | 0.00 | 0.00 | 0.00 | 72 | 1009.2 |
| 20260905234239 | 89 | 122 | 9.0 | 18.0 | 0.00 | 0.00 | 0.00 | 72 | 1009.2 |
| 20260905233733 | 90 | 149 | 9.0 | 18.0 | 0.00 | 0.00 | 0.00 | 71 | 1009.2 |
| 20260905233228 | 90 | 172 | 10.0 | 18.0 | 0.00 | 0.00 | 0.00 | 71 | 1009.2 |
| 20260905232215 | 91 | 153 | 8.0 | 15.0 | 0.00 | 0.00 | 0.00 | 71 | 1008.8 |
| 20260905231716 | 91 | 162 | 8.0 | 14.0 | 0.00 | 0.00 | 0.00 | 69 | 1008.8 |
| 20260905231216 | 91 | 136 | 8.0 | 14.0 | 0.00 | 0.00 | 0.00 | 68 | 1008.9 |
| 20260905230717 | 92 | 142 | 8.0 | 15.0 | 0.00 | 0.00 | 0.00 | 69 | 1008.9 |
| 20260905230215 | 91 | 185 | 11.0 | 17.0 | 0.00 | 0.00 | 0.00 | 68 | 1008.9 |
| 20260905225717 | 91 | 160 | 11.0 | 17.0 | 0.00 | 0.00 | 0.00 | 67 | 1008.8 |
| 20260905225222 | 92 | 151 | 10.0 | 15.0 | 0.00 | 0.00 | 0.00 | 66 | 1008.8 |
| 20260905224937 | 92 | 136 | 10.0 | 16.0 | 0.00 | 0.00 | 0.00 | 67 | 1008.8 |
| 20260905224216 | 92 | 132 | 9.0 | 16.0 | 0.00 | 0.00 | 0.00 | 66 | 1008.7 |
| 20260905223715 | 92 | 142 | 9.0 | 16.0 | 0.00 | 0.00 | 0.00 | 65 | 1008.7 |
| 20260905223451 | 93 | 116 | 10.0 | 16.0 | 0.00 | 0.00 | 0.00 | 63 | 1008.7 |
| 20260905222711 | 93 | 85 | 9.0 | 16.0 | 0.00 | 0.00 | 0.00 | 63 | 1008.7 |
| 20260905222212 | 93 | 161 | 9.0 | 16.0 | 0.00 | 0.00 | 0.00 | 63 | 1008.7 |
| 20260905221708 | 93 | 155 | 9.0 | 15.0 | 0.00 | 0.00 | 0.00 | 65 | 1008.7 |
| 20260905221208 | 93 | 143 | 9.0 | 15.0 | 0.00 | 0.00 | 0.00 | 66 | 1008.8 |
| 20260905220708 | 93 | 85 | 9.0 | 17.0 | 0.00 | 0.00 | 0.00 | 65 | 1008.8 |
| 20260905220213 | 93 | 172 | 10.0 | 17.0 | 0.00 | 0.00 | 0.00 | 65 | 1008.8 |
| 20260905215937 | 93 | 164 | 10.0 | 17.0 | 0.00 | 0.00 | 0.00 | 65 | 1008.8 |
| 20260905215432 | 94 | 145 | 10.0 | 17.0 | 0.00 | 0.00 | 0.00 | 64 | 1008.8 |
| 20260905214703 | 94 | 153 | 10.0 | 17.0 | 0.00 | 0.00 | 0.00 | 65 | 1008.8 |
| 20260905214432 | 94 | 128 | 9.0 | 17.0 | 0.00 | 0.00 | 0.00 | 65 | 1008.8 |
| 20260905213704 | 95 | 178 | 9.0 | 16.0 | 0.00 | 0.00 | 0.00 | 63 | 1008.8 |
| 20260905213203 | 94 | 95 | 9.0 | 15.0 | 0.00 | 0.00 | 0.00 | 65 | 1008.8 |
| 20260905212705 | 93 | 119 | 8.0 | 15.0 | 0.00 | 0.00 | 0.00 | 66 | 1008.8 |
| 20260905212205 | 93 | 145 | 9.0 | 15.0 | 0.00 | 0.00 | 0.00 | 67 | 1008.8 |
| 20260905211704 | 92 | 145 | 9.0 | 15.0 | 0.00 | 0.00 | 0.00 | 69 | 1008.8 |
| 20260905211149 | 92 | 122 | 10.0 | 15.0 | 0.00 | 0.00 | 0.00 | 68 | 1008.9 |
| 20260905210645 | 92 | 135 | 10.0 | 15.0 | 0.00 | 0.00 | 0.00 | 68 | 1008.9 |
| 20260905210407 | 92 | 168 | 10.0 | 15.0 | 0.00 | 0.00 | 0.00 | 66 | 1008.9 |
| 20260905205647 | 92 | 143 | 8.0 | 15.0 | 0.00 | 0.00 | 0.00 | 66 | 1009.1 |
| 20260905205145 | 93 | 147 | 8.0 | 15.0 | 0.00 | 0.00 | 0.00 | 65 | 1009.1 |
| 20260905204643 | 94 | 169 | 8.0 | 16.0 | 0.00 | 0.00 | 0.00 | 65 | 1009.1 |
| 20260905204406 | 94 | 168 | 9.0 | 16.0 | 0.00 | 0.00 | 0.00 | 63 | 1009.1 |
| 20260905203643 | 95 | 90 | 8.0 | 14.0 | 0.00 | 0.00 | 0.00 | 63 | 1009.1 |
| 20260905203143 | 95 | 184 | 6.0 | 13.0 | 0.00 | 0.00 | 0.00 | 61 | 1009.1 |
| 20260905202644 | 94 | 144 | 6.0 | 11.0 | 0.00 | 0.00 | 0.00 | 61 | 1009.3 |
| 20260905202128 | 93 | 95 | 4.0 | 11.0 | 0.00 | 0.00 | 0.00 | 61 | 1009.3 |
| 20260905201617 | 93 | 61 | 3.0 | 5.0 | 0.00 | 0.00 | 0.00 | 66 | 1009.3 |
| 20260905201104 | 92 | 36 | 3.0 | 8.0 | 0.00 | 0.00 | 0.00 | 65 | 1009.6 |
| 20260905200819 | 92 | 12 | 3.0 | 8.0 | 0.00 | 0.00 | 0.00 | 68 | 1009.6 |
| 20260905200053 | 91 | 19 | 4.0 | 8.0 | 0.00 | 0.00 | 0.00 | 71 | 1009.6 |
| 20260905195554 | 91 | 13 | 5.0 | 8.0 | 0.00 | 0.00 | 0.00 | 71 | 1010.0 |
| 20260905195053 | 92 | 9 | 4.0 | 8.0 | 0.00 | 0.00 | 0.00 | 69 | 1010.0 |
| 20260905194818 | 92 | 20 | 3.0 | 7.0 | 0.00 | 0.00 | 0.00 | 70 | 1010.0 |
| 20260905194053 | 92 | 355 | 2.0 | 5.0 | 0.00 | 0.00 | 0.00 | 71 | 1010.3 |
| 20260905193559 | 92 | 56 | 2.0 | 6.0 | 0.00 | 0.00 | 0.00 | 72 | 1010.3 |
| 20260905193048 | 91 | 34 | 3.0 | 7.0 | 0.00 | 0.00 | 0.00 | 71 | 1010.3 |
| 20260905192538 | 91 | 90 | 3.0 | 7.0 | 0.00 | 0.00 | 0.00 | 70 | 1010.8 |
| 20260905192025 | 91 | 14 | 3.0 | 7.0 | 0.00 | 0.00 | 0.00 | 71 | 1010.8 |
| 20260905191025 | 92 | 28 | 4.0 | 10.0 | 0.00 | 0.00 | 0.00 | 68 | 1010.8 |
| 20260905190520 | 93 | 53 | 4.0 | 10.0 | 0.00 | 0.00 | 0.00 | 65 | 1010.8 |
| 20260905190246 | 93 | 90 | 5.0 | 10.0 | 0.00 | 0.00 | 0.00 | 65 | 1010.8 |
| 20260905185522 | 92 | 161 | 4.0 | 15.0 | 0.00 | 0.00 | 0.00 | 67 | 1010.8 |
| 20260905185022 | 91 | 173 | 4.0 | 15.0 | 0.00 | 0.00 | 0.00 | 66 | 1010.8 |
| 20260905184520 | 91 | 124 | 5.0 | 10.0 | 0.00 | 0.00 | 0.00 | 67 | 1010.8 |
| 20260905184236 | 91 | 133 | 6.0 | 10.0 | 0.00 | 0.00 | 0.00 | 65 | 1011.1 |
| 20260905183528 | 92 | 90 | 4.0 | 10.0 | 0.00 | 0.00 | 0.00 | 67 | 1011.1 |
| 20260905183019 | 93 | 181 | 4.0 | 7.0 | 0.00 | 0.00 | 0.00 | 67 | 1011.1 |
| 20260905182515 | 93 | 210 | 4.0 | 8.0 | 0.00 | 0.00 | 0.00 | 66 | 1011.4 |
| 20260905182015 | 93 | 209 | 4.0 | 8.0 | 0.00 | 0.00 | 0.00 | 68 | 1011.4 |
| 20260905181515 | 92 | 229 | 3.0 | 6.0 | 0.00 | 0.00 | 0.00 | 66 | 1011.4 |
| 20260905180737 | 92 | 218 | 4.0 | 7.0 | 0.00 | 0.00 | 0.00 | 65 | 1011.5 |
| 20260905180011 | 92 | 251 | 4.0 | 7.0 | 0.00 | 0.00 | 0.00 | 64 | 1011.5 |
| 20260905175510 | 92 | 278 | 4.0 | 7.0 | 0.00 | 0.00 | 0.00 | 63 | 1011.8 |
| 20260905175011 | 93 | 255 | 4.0 | 7.0 | 0.00 | 0.00 | 0.00 | 63 | 1011.8 |
| 20260905174509 | 94 | 220 | 5.0 | 8.0 | 0.00 | 0.00 | 0.00 | 65 | 1011.8 |
| 20260905174008 | 93 | 241 | 6.0 | 8.0 | 0.00 | 0.00 | 0.00 | 65 | 1012.0 |
| 20260905173508 | 93 | 229 | 5.0 | 8.0 | 0.00 | 0.00 | 0.00 | 65 | 1012.0 |
| 20260905173008 | 92 | 224 | 4.0 | 8.0 | 0.00 | 0.00 | 0.00 | 65 | 1012.0 |
| 20260905172508 | 92 | 240 | 5.0 | 8.0 | 0.00 | 0.00 | 0.00 | 66 | 1012.1 |
| 20260905171458 | 91 | 228 | 6.0 | 8.0 | 0.00 | 0.00 | 0.00 | 69 | 1012.1 |
| 20260905170948 | 91 | 243 | 6.0 | 8.0 | 0.00 | 0.00 | 0.00 | 71 | 1012.3 |
| 20260905170505 | 90 | 229 | 5.0 | 6.0 | 0.00 | 0.00 | 0.00 | 76 | 1012.3 |
| 20260905165938 | 91 | 242 | 4.0 | 8.0 | 0.00 | 0.00 | 0.00 | 75 | 1012.4 |
| 20260905165440 | 92 | 264 | 4.0 | 8.0 | 0.00 | 0.00 | 0.00 | 72 | 1012.4 |
| 20260905164938 | 92 | 227 | 4.0 | 8.0 | 0.00 | 0.00 | 0.00 | 72 | 1012.4 |
| 20260905164436 | 92 | 238 | 3.0 | 8.0 | 0.00 | 0.00 | 0.00 | 73 | 1012.4 |
| 20260905163948 | 92 | 218 | 5.0 | 9.0 | 0.00 | 0.00 | 0.00 | 69 | 1012.4 |
| 20260905163443 | 92 | 221 | 6.0 | 10.0 | 0.00 | 0.00 | 0.00 | 71 | 1012.4 |
| 20260905163202 | 91 | 225 | 6.0 | 10.0 | 0.00 | 0.00 | 0.00 | 72 | 1012.4 |
| 20260905162432 | 91 | 202 | 7.0 | 10.0 | 0.00 | 0.00 | 0.00 | 75 | 1012.4 |
| 20260905161934 | 90 | 209 | 5.0 | 10.0 | 0.00 | 0.00 | 0.00 | 76 | 1012.4 |
| 20260905161432 | 90 | 200 | 4.0 | 8.0 | 0.00 | 0.00 | 0.00 | 75 | 1012.4 |
| 20260905160916 | 91 | 206 | 4.0 | 7.0 | 0.00 | 0.00 | 0.00 | 74 | 1012.4 |
| 20260905160632 | 91 | 221 | 5.0 | 8.0 | 0.00 | 0.00 | 0.00 | 73 | 1012.4 |
| 20260905155915 | 91 | 206 | 5.0 | 8.0 | 0.00 | 0.00 | 0.00 | 75 | 1012.4 |
| 20260905155414 | 90 | 239 | 5.0 | 8.0 | 0.00 | 0.00 | 0.00 | 74 | 1012.4 |
| 20260905154914 | 89 | 220 | 5.0 | 8.0 | 0.00 | 0.00 | 0.00 | 76 | 1012.4 |
| 20260905154414 | 89 | 218 | 5.0 | 6.0 | 0.00 | 0.00 | 0.00 | 78 | 1012.4 |
| 20260905154142 | 88 | 220 | 3.0 | 7.0 | 0.00 | 0.00 | 0.00 | 79 | 1012.4 |
| 20260905153415 | 87 | 209 | 2.0 | 7.0 | 0.00 | 0.00 | 0.00 | 78 | 1012.4 |
| 20260905153139 | 86 | 250 | 1.0 | 2.0 | 0.00 | 0.00 | 0.00 | 83 | 1012.4 |
| 20260905152414 | 86 | 253 | 0.0 | 3.0 | 0.00 | 0.00 | 0.00 | 83 | 1012.4 |
| 20260905152138 | 86 | 253 | 0.0 | 3.0 | 0.00 | 0.00 | 0.00 | 83 | 1012.4 |
| 20260905151414 | 85 | 253 | 0.0 | 2.0 | 0.00 | 0.00 | 0.00 | 84 | 1012.4 |
| 20260905150911 | 85 | 253 | 0.0 | 4.0 | 0.00 | 0.00 | 0.00 | 84 | 1012.4 |
| 20260905150410 | 85 | 253 | 0.0 | 4.0 | 0.00 | 0.00 | 0.00 | 84 | 1012.4 |
| 20260905150127 | 85 | 253 | 1.0 | 4.0 | 0.00 | 0.00 | 0.00 | 84 | 1012.4 |
| 20260905145410 | 85 | 253 | 2.0 | 4.0 | 0.00 | 0.00 | 0.00 | 85 | 1012.4 |
| 20260905144909 | 85 | 253 | 1.0 | 3.0 | 0.00 | 0.00 | 0.00 | 85 | 1012.4 |
| 20260905144409 | 86 | 253 | 1.0 | 3.0 | 0.00 | 0.00 | 0.00 | 84 | 1012.4 |
| 20260905144128 | 86 | 253 | 2.0 | 4.0 | 0.00 | 0.00 | 0.00 | 84 | 1012.4 |
| 20260905143404 | 86 | 253 | 2.0 | 4.0 | 0.00 | 0.00 | 0.00 | 84 | 1012.4 |
| 20260905142853 | 86 | 267 | 1.0 | 4.0 | 0.00 | 0.00 | 0.00 | 84 | 1012.2 |
| 20260905142343 | 86 | 35 | 1.0 | 4.0 | 0.00 | 0.00 | 0.00 | 85 | 1012.2 |
| 20260905141836 | 86 | 36 | 2.0 | 4.0 | 0.00 | 0.00 | 0.00 | 85 | 1012.2 |
| 20260905141331 | 85 | 71 | 2.0 | 4.0 | 0.00 | 0.00 | 0.00 | 86 | 1012.1 |
| 20260905140825 | 85 | 78 | 2.0 | 4.0 | 0.00 | 0.00 | 0.00 | 86 | 1012.1 |
| 20260905140312 | 84 | 95 | 2.0 | 4.0 | 0.00 | 0.00 | 0.00 | 87 | 1012.1 |
| 20260905135812 | 83 | 107 | 2.0 | 5.0 | 0.00 | 0.00 | 0.00 | 87 | 1012.0 |
| 20260905135311 | 83 | 79 | 2.0 | 5.0 | 0.00 | 0.00 | 0.00 | 88 | 1012.0 |
| 20260905134812 | 82 | 68 | 2.0 | 5.0 | 0.00 | 0.00 | 0.00 | 88 | 1012.0 |
| 20260905133810 | 81 | 47 | 2.0 | 5.0 | 0.00 | 0.00 | 0.00 | 89 | 1011.9 |
| 20260905133310 | 80 | 55 | 1.0 | 5.0 | 0.00 | 0.00 | 0.00 | 89 | 1011.9 |
| 20260905132811 | 80 | 74 | 1.0 | 3.0 | 0.00 | 0.00 | 0.00 | 90 | 1011.7 |
| 20260905132532 | 79 | 72 | 1.0 | 3.0 | 0.00 | 0.00 | 0.00 | 91 | 1011.7 |
| 20260905131808 | 78 | 74 | 1.0 | 3.0 | 0.00 | 0.00 | 0.00 | 91 | 1011.7 |
| 20260905131309 | 78 | 69 | 1.0 | 5.0 | 0.00 | 0.00 | 0.00 | 91 | 1011.5 |
| 20260905130256 | 77 | 69 | 2.0 | 5.0 | 0.00 | 0.00 | 0.00 | 91 | 1011.5 |
| 20260905125750 | 77 | 61 | 3.0 | 5.0 | 0.00 | 0.00 | 0.00 | 92 | 1011.4 |
| 20260905125508 | 77 | 50 | 2.0 | 5.0 | 0.00 | 0.00 | 0.00 | 92 | 1011.4 |
| 20260905124953 | 77 | 61 | 2.0 | 5.0 | 0.00 | 0.00 | 0.00 | 92 | 1011.4 |
| 20260905124453 | 76 | 78 | 2.0 | 5.0 | 0.00 | 0.00 | 0.00 | 92 | 1011.4 |
| 20260905123715 | 76 | 65 | 2.0 | 5.0 | 0.00 | 0.00 | 0.00 | 92 | 1011.4 |
| 20260905123209 | 76 | 73 | 3.0 | 5.0 | 0.00 | 0.00 | 0.00 | 92 | 1011.4 |
| 20260905122700 | 76 | 53 | 3.0 | 5.0 | 0.00 | 0.00 | 0.00 | 92 | 1011.0 |
| 20260905122159 | 76 | 55 | 3.0 | 5.0 | 0.00 | 0.00 | 0.00 | 92 | 1011.0 |
| 20260905121659 | 76 | 59 | 3.0 | 5.0 | 0.00 | 0.00 | 0.00 | 92 | 1011.0 |
| 20260905121158 | 76 | 57 | 2.0 | 4.0 | 0.00 | 0.00 | 0.00 | 92 | 1010.9 |
| 20260905120927 | 76 | 61 | 3.0 | 4.0 | 0.00 | 0.00 | 0.00 | 92 | 1010.9 |
| 20260905120200 | 76 | 61 | 3.0 | 4.0 | 0.00 | 0.00 | 0.00 | 92 | 1010.9 |
| 20260905115659 | 76 | 56 | 3.0 | 4.0 | 0.00 | 0.00 | 0.00 | 92 | 1010.8 |
| 20260905114658 | 76 | 64 | 2.0 | 4.0 | 0.00 | 0.00 | 0.00 | 92 | 1010.8 |
| 20260905114424 | 76 | 55 | 3.0 | 4.0 | 0.00 | 0.00 | 0.00 | 92 | 1010.8 |
| 20260905113649 | 76 | 56 | 3.0 | 4.0 | 0.00 | 0.00 | 0.00 | 92 | 1010.8 |
| 20260905113148 | 76 | 60 | 3.0 | 5.0 | 0.00 | 0.00 | 0.00 | 92 | 1010.8 |
| 20260905112648 | 76 | 55 | 3.0 | 5.0 | 0.00 | 0.00 | 0.00 | 92 | 1010.7 |
| 20260905112149 | 76 | 56 | 3.0 | 5.0 | 0.00 | 0.00 | 0.00 | 92 | 1010.7 |
| 20260905111650 | 76 | 54 | 3.0 | 4.0 | 0.00 | 0.00 | 0.00 | 92 | 1010.7 |
| 20260905111149 | 76 | 55 | 3.0 | 4.0 | 0.00 | 0.00 | 0.00 | 92 | 1010.7 |
| 20260905110146 | 76 | 53 | 3.0 | 5.0 | 0.00 | 0.00 | 0.00 | 92 | 1010.7 |
| 20260905105639 | 76 | 59 | 4.0 | 5.0 | 0.00 | 0.00 | 0.00 | 92 | 1010.5 |
| 20260905105137 | 76 | 51 | 4.0 | 6.0 | 0.00 | 0.00 | 0.00 | 92 | 1010.5 |
| 20260905104636 | 76 | 57 | 4.0 | 6.0 | 0.00 | 0.00 | 0.00 | 92 | 1010.5 |
| 20260905104133 | 76 | 55 | 4.0 | 6.0 | 0.00 | 0.00 | 0.00 | 92 | 1010.4 |
| 20260905103634 | 76 | 55 | 3.0 | 5.0 | 0.00 | 0.00 | 0.00 | 92 | 1010.4 |
| 20260905103133 | 76 | 63 | 3.0 | 5.0 | 0.00 | 0.00 | 0.00 | 92 | 1010.4 |
| 20260905102634 | 76 | 61 | 3.0 | 5.0 | 0.00 | 0.00 | 0.00 | 92 | 1010.3 |
| 20260905102133 | 76 | 68 | 4.0 | 5.0 | 0.00 | 0.00 | 0.00 | 92 | 1010.3 |
| 20260905101633 | 76 | 72 | 3.0 | 4.0 | 0.00 | 0.00 | 0.00 | 92 | 1010.3 |
| 20260905101131 | 76 | 76 | 3.0 | 4.0 | 0.00 | 0.00 | 0.00 | 92 | 1010.3 |
| 20260905100626 | 76 | 78 | 1.0 | 4.0 | 0.00 | 0.00 | 0.00 | 92 | 1010.3 |
| 20260905100120 | 76 | 78 | 1.0 | 3.0 | 0.00 | 0.00 | 0.00 | 92 | 1010.3 |
| 20260905095614 | 76 | 78 | 2.0 | 3.0 | 0.00 | 0.00 | 0.00 | 92 | 1010.3 |
| 20260905095114 | 76 | 78 | 2.0 | 3.0 | 0.00 | 0.00 | 0.00 | 91 | 1010.3 |
| 20260905094611 | 76 | 78 | 2.0 | 3.0 | 0.00 | 0.00 | 0.00 | 91 | 1010.3 |
| 20260905094110 | 76 | 78 | 2.0 | 3.0 | 0.00 | 0.00 | 0.00 | 91 | 1010.3 |
| 20260905093611 | 76 | 78 | 1.0 | 2.0 | 0.00 | 0.00 | 0.00 | 91 | 1010.3 |
| 20260905093109 | 76 | 78 | 0.0 | 2.0 | 0.00 | 0.00 | 0.00 | 91 | 1010.3 |
| 20260905092607 | 76 | 78 | 0.0 | 2.0 | 0.00 | 0.00 | 0.00 | 91 | 1010.3 |
| 20260905092108 | 76 | 78 | 0.0 | 2.0 | 0.00 | 0.00 | 0.00 | 91 | 1010.3 |
| 20260905091106 | 76 | 78 | 0.0 | 0.0 | 0.00 | 0.00 | 0.00 | 91 | 1010.3 |
| 20260905090607 | 76 | 79 | 0.0 | 0.0 | 0.00 | 0.00 | 0.00 | 91 | 1010.3 |
| 20260905085552 | 76 | 78 | 0.0 | 0.0 | 0.00 | 0.00 | 0.00 | 91 | 1010.2 |
| 20260905085045 | 76 | 79 | 0.0 | 0.0 | 0.00 | 0.00 | 0.00 | 91 | 1010.2 |
| 20260905084540 | 76 | 79 | 0.0 | 0.0 | 0.00 | 0.00 | 0.00 | 91 | 1010.2 |
| 20260905084033 | 76 | 79 | 0.0 | 0.0 | 0.00 | 0.00 | 0.00 | 90 | 1010.0 |
| 20260905083742 | 76 | 79 | 0.0 | 0.0 | 0.00 | 0.00 | 0.00 | 90 | 1010.0 |
| 20260905083014 | 77 | 79 | 0.0 | 0.0 | 0.00 | 0.00 | 0.00 | 90 | 1010.3 |
| 20260905082503 | 77 | 79 | 0.0 | 0.0 | 0.00 | 0.00 | 0.00 | 90 | 1010.3 |
| 20260905081957 | 77 | 79 | 0.0 | 1.0 | 0.00 | 0.00 | 0.00 | 91 | 1010.3 |
| 20260905081453 | 77 | 79 | 0.0 | 1.0 | 0.00 | 0.00 | 0.00 | 90 | 1010.3 |
| 20260905080951 | 77 | 79 | 0.0 | 1.0 | 0.00 | 0.00 | 0.00 | 90 | 1010.3 |
| 20260905080450 | 77 | 79 | 0.0 | 1.0 | 0.00 | 0.00 | 0.00 | 90 | 1010.3 |
| 20260905075947 | 77 | 78 | 0.0 | 0.0 | 0.00 | 0.00 | 0.00 | 90 | 1010.4 |
| 20260905075444 | 78 | 78 | 0.0 | 0.0 | 0.00 | 0.00 | 0.00 | 90 | 1010.4 |
| 20260905074942 | 78 | 78 | 0.0 | 3.0 | 0.00 | 0.00 | 0.00 | 91 | 1010.4 |
| 20260905074703 | 78 | 78 | 1.0 | 4.0 | 0.00 | 0.00 | 0.00 | 91 | 1010.6 |
| 20260905073941 | 78 | 78 | 1.0 | 4.0 | 0.00 | 0.00 | 0.00 | 91 | 1010.6 |
| 20260905073441 | 78 | 78 | 2.0 | 4.0 | 0.00 | 0.00 | 0.00 | 91 | 1010.6 |
| 20260905072939 | 78 | 79 | 1.0 | 4.0 | 0.00 | 0.00 | 0.00 | 90 | 1010.7 |
| 20260905072440 | 78 | 103 | 1.0 | 3.0 | 0.00 | 0.00 | 0.00 | 90 | 1010.7 |
| 20260905071935 | 78 | 157 | 2.0 | 3.0 | 0.00 | 0.00 | 0.00 | 90 | 1010.7 |
| 20260905071434 | 78 | 159 | 2.0 | 3.0 | 0.00 | 0.00 | 0.00 | 90 | 1010.8 |
| 20260905071158 | 78 | 159 | 1.0 | 3.0 | 0.00 | 0.00 | 0.00 | 91 | 1010.8 |
| 20260905070434 | 78 | 159 | 1.0 | 3.0 | 0.00 | 0.00 | 0.00 | 91 | 1010.8 |
| 20260905070153 | 78 | 159 | 2.0 | 3.0 | 0.00 | 0.00 | 0.00 | 91 | 1010.8 |
| 20260905065436 | 78 | 159 | 2.0 | 5.0 | 0.00 | 0.00 | 0.00 | 91 | 1010.8 |
| 20260905064935 | 78 | 159 | 3.0 | 5.0 | 0.00 | 0.00 | 0.00 | 91 | 1010.8 |
| 20260905064655 | 78 | 159 | 3.0 | 6.0 | 0.00 | 0.00 | 0.00 | 91 | 1010.8 |
| 20260905064142 | 78 | 166 | 4.0 | 6.0 | 0.00 | 0.00 | 0.00 | 90 | 1010.8 |
| 20260905063641 | 78 | 170 | 3.0 | 5.0 | 0.00 | 0.00 | 0.00 | 90 | 1010.8 |
| 20260905062920 | 78 | 167 | 3.0 | 5.0 | 0.00 | 0.00 | 0.00 | 90 | 1010.8 |
| 20260905062420 | 78 | 165 | 3.0 | 4.0 | 0.00 | 0.00 | 0.00 | 90 | 1010.8 |
| 20260905061921 | 78 | 160 | 3.0 | 4.0 | 0.00 | 0.00 | 0.00 | 90 | 1010.8 |
| 20260905061421 | 78 | 153 | 3.0 | 5.0 | 0.00 | 0.00 | 0.00 | 89 | 1010.8 |
| 20260905060921 | 78 | 139 | 3.0 | 5.0 | 0.00 | 0.00 | 0.00 | 89 | 1010.8 |
| 20260905060419 | 79 | 134 | 2.0 | 4.0 | 0.00 | 0.00 | 0.00 | 89 | 1010.8 |
| 20260905055645 | 79 | 120 | 3.0 | 4.0 | 0.00 | 0.00 | 0.00 | 89 | 1010.7 |
| 20260905054917 | 79 | 118 | 3.0 | 4.0 | 0.00 | 0.00 | 0.00 | 89 | 1010.7 |
| 20260905054407 | 79 | 120 | 2.0 | 4.0 | 0.00 | 0.00 | 0.00 | 89 | 1010.8 |
| 20260905053900 | 79 | 120 | 2.0 | 4.0 | 0.00 | 0.00 | 0.00 | 89 | 1010.8 |
| 20260905053351 | 79 | 120 | 2.0 | 4.0 | 0.00 | 0.00 | 0.00 | 89 | 1010.8 |
| 20260905052844 | 79 | 120 | 2.0 | 4.0 | 0.00 | 0.00 | 0.00 | 89 | 1010.9 |
| 20260905052344 | 79 | 120 | 3.0 | 4.0 | 0.00 | 0.00 | 0.00 | 89 | 1010.9 |
| 20260905051845 | 79 | 120 | 3.0 | 5.0 | 0.00 | 0.00 | 0.00 | 89 | 1010.9 |
| 20260905051341 | 79 | 120 | 3.0 | 5.0 | 0.00 | 0.00 | 0.00 | 89 | 1011.0 |
| 20260905050841 | 80 | 130 | 3.0 | 5.0 | 0.00 | 0.00 | 0.00 | 89 | 1011.0 |
| 20260905050058 | 80 | 114 | 3.0 | 5.0 | 0.00 | 0.00 | 0.00 | 89 | 1010.9 |
| 20260905045335 | 80 | 114 | 3.0 | 5.0 | 0.00 | 0.00 | 0.00 | 89 | 1010.9 |
| 20260905044835 | 80 | 115 | 4.0 | 5.0 | 0.00 | 0.00 | 0.00 | 89 | 1010.9 |
| 20260905044335 | 80 | 114 | 4.0 | 5.0 | 0.00 | 0.00 | 0.00 | 89 | 1011.2 |
| 20260905043836 | 80 | 113 | 4.0 | 5.0 | 0.00 | 0.00 | 0.00 | 89 | 1011.2 |
| 20260905043336 | 80 | 116 | 4.0 | 6.0 | 0.00 | 0.00 | 0.00 | 89 | 1011.2 |
| 20260905042832 | 80 | 116 | 3.0 | 6.0 | 0.00 | 0.00 | 0.00 | 89 | 1011.4 |
| 20260905042337 | 80 | 126 | 3.0 | 6.0 | 0.00 | 0.00 | 0.00 | 89 | 1011.4 |
| 20260905041837 | 80 | 128 | 3.0 | 6.0 | 0.00 | 0.00 | 0.00 | 89 | 1011.4 |
| 20260905041330 | 81 | 143 | 3.0 | 6.0 | 0.00 | 0.00 | 0.00 | 88 | 1011.4 |
| 20260905040827 | 81 | 132 | 3.0 | 6.0 | 0.00 | 0.00 | 0.00 | 88 | 1011.4 |
| 20260905040326 | 81 | 124 | 3.0 | 6.0 | 0.00 | 0.00 | 0.00 | 88 | 1011.4 |
| 20260905040040 | 81 | 117 | 4.0 | 6.0 | 0.00 | 0.00 | 0.00 | 88 | 1011.4 |
| 20260905035309 | 81 | 116 | 4.0 | 7.0 | 0.00 | 0.00 | 0.00 | 88 | 1011.4 |
| 20260905034808 | 81 | 116 | 4.0 | 7.0 | 0.00 | 0.00 | 0.00 | 88 | 1011.4 |
| 20260905034300 | 82 | 118 | 5.0 | 7.0 | 0.00 | 0.00 | 0.00 | 88 | 1011.4 |
| 20260905033802 | 82 | 117 | 5.0 | 7.0 | 0.00 | 0.00 | 0.00 | 88 | 1011.4 |
| 20260905033258 | 82 | 108 | 5.0 | 7.0 | 0.00 | 0.00 | 0.00 | 87 | 1011.4 |
| 20260905032803 | 82 | 111 | 4.0 | 7.0 | 0.00 | 0.00 | 0.00 | 87 | 1011.3 |
| 20260905032522 | 82 | 128 | 5.0 | 7.0 | 0.00 | 0.00 | 0.00 | 87 | 1011.3 |
| 20260905031759 | 82 | 107 | 5.0 | 7.0 | 0.00 | 0.00 | 0.00 | 87 | 1011.3 |
| 20260905031258 | 82 | 99 | 5.0 | 7.0 | 0.00 | 0.00 | 0.00 | 87 | 1010.9 |
| 20260905030802 | 82 | 105 | 5.0 | 7.0 | 0.00 | 0.00 | 0.00 | 87 | 1010.9 |
| 20260905030519 | 82 | 101 | 5.0 | 8.0 | 0.00 | 0.00 | 0.00 | 87 | 1010.9 |
| 20260905025804 | 82 | 107 | 5.0 | 8.0 | 0.00 | 0.00 | 0.00 | 87 | 1010.9 |
| 20260905025253 | 82 | 107 | 5.0 | 8.0 | 0.00 | 0.00 | 0.00 | 87 | 1010.9 |
| 20260905025020 | 82 | 104 | 5.0 | 7.0 | 0.00 | 0.00 | 0.00 | 87 | 1010.9 |
| 20260905024248 | 82 | 120 | 5.0 | 7.0 | 0.00 | 0.00 | 0.00 | 87 | 1011.0 |
| 20260905023746 | 82 | 104 | 4.0 | 7.0 | 0.00 | 0.00 | 0.00 | 87 | 1011.0 |
| 20260905023246 | 83 | 118 | 5.0 | 7.0 | 0.00 | 0.00 | 0.00 | 87 | 1011.0 |
| 20260905023021 | 83 | 114 | 5.0 | 7.0 | 0.00 | 0.00 | 0.00 | 87 | 1011.0 |
| 20260905022504 | 83 | 126 | 4.0 | 7.0 | 0.00 | 0.00 | 0.00 | 86 | 1011.0 |
| 20260905021746 | 83 | 114 | 5.0 | 7.0 | 0.00 | 0.00 | 0.00 | 86 | 1011.0 |
| 20260905021248 | 83 | 108 | 5.0 | 7.0 | 0.00 | 0.00 | 0.00 | 86 | 1011.2 |
| 20260905020745 | 83 | 107 | 5.0 | 7.0 | 0.00 | 0.00 | 0.00 | 86 | 1011.2 |
| 20260905020242 | 83 | 128 | 5.0 | 9.0 | 0.00 | 0.00 | 0.00 | 86 | 1011.2 |
| 20260905015742 | 83 | 113 | 5.0 | 9.0 | 0.00 | 0.00 | 0.00 | 86 | 1010.8 |
| 20260905015242 | 83 | 110 | 6.0 | 9.0 | 0.00 | 0.00 | 0.00 | 85 | 1010.8 |
| 20260905014743 | 84 | 111 | 6.0 | 9.0 | 0.00 | 0.00 | 0.00 | 85 | 1010.8 |
| 20260905014233 | 84 | 109 | 6.0 | 9.0 | 0.00 | 0.00 | 0.00 | 85 | 1010.8 |
| 20260905013727 | 84 | 106 | 6.0 | 10.0 | 0.00 | 0.00 | 0.00 | 85 | 1010.8 |
| 20260905013216 | 84 | 120 | 6.0 | 10.0 | 0.00 | 0.00 | 0.00 | 85 | 1010.8 |
| 20260905012710 | 84 | 139 | 6.0 | 10.0 | 0.00 | 0.00 | 0.00 | 84 | 1010.4 |
| 20260905012210 | 84 | 141 | 6.0 | 12.0 | 0.00 | 0.00 | 0.00 | 84 | 1010.4 |
| 20260905011933 | 85 | 139 | 6.0 | 12.0 | 0.00 | 0.00 | 0.00 | 83 | 1010.4 |
| 20260905011209 | 85 | 143 | 7.0 | 12.0 | 0.00 | 0.00 | 0.00 | 83 | 1010.3 |
| 20260905010708 | 85 | 90 | 7.0 | 12.0 | 0.00 | 0.00 | 0.00 | 83 | 1010.3 |
| 20260905010209 | 85 | 130 | 7.0 | 14.0 | 0.00 | 0.00 | 0.00 | 83 | 1010.3 |
| 20260905005709 | 85 | 90 | 6.0 | 14.0 | 0.00 | 0.00 | 0.00 | 82 | 1010.2 |
| 20260905005430 | 85 | 141 | 7.0 | 14.0 | 0.00 | 0.00 | 0.00 | 82 | 1010.2 |